Location: Zagreb
(45.8000°N, 16.0000°E)
Time: 13:54:29
(UTC+02:00)

Vanguard 2 Rocket - Pass Details

Date: 22 July 2024
Orbit: 556 x 3291 km, 32.9° (Epoch: 19 July)

Event Time Altitude Azimuth Distance (km) Brightness Sun altitude
Rises 23:51:52 0° 261° (W) 4,046 10.3 -22.0°
Reaches altitude 10° 23:54:44 10° 248° (WSW) 3,411 9.8 -22.2°
Maximum altitude 00:01:56 27° 195° (SSW) 3,070 9.1 -22.6°
Enters shadow 00:02:08 27° 194° (SSW) 3,089 9.1 -22.6°
